Location: Newark
(47.8167°N, 6.1833°E)
Time: 20:31:26
(UTC+00:00)

N. Korean satellite - Pass Details

Date: 26 September 2020
Orbit: 452 x 505 km, 97.2° (Epoch: 28 October)

Event Time Altitude Azimuth Distance (km) Brightness Sun altitude
Rises 04:51:03 0° 18° (NNE) 2,600 10.6 -7.0°
Reaches altitude 10° 04:53:14 10° 25° (NNE) 1,703 9.8 -6.6°
Maximum altitude 04:56:45 44° 98° (E) 690 8.0 -6.1°
Drops below altitude 10° 05:00:11 10° 172° (S) 1,660 9.3 -5.5°
Sets 05:02:17 0° 179° (S) 2,525 10.2 -5.1°
